Location: ???????
(55.8930°N, 38.0586°E)
Time: 06:41:23
(UTC+00:00)

CZ-2C R/B - Pass Details

Date: 14 April 2024
Orbit: 666 x 779 km, 98.4° (Epoch: 22 May)

Event Time Altitude Azimuth Distance (km) Brightness Sun altitude
Rises 00:43:21 0° 18° (NNE) 3,259 6.8 -13.1°
Reaches altitude 10° 00:45:45 10° 25° (NNE) 2,336 6.1 -12.9°
Maximum altitude 00:50:44 47° 99° (E) 1,036 3.5 -12.3°
Drops below altitude 10° 00:55:42 10° 172° (S) 2,328 4.7 -11.8°
Sets 00:58:06 0° 179° (S) 3,246 5.4 -11.5°
